Meteo Giornale » Osservazioni meteo Stati Uniti (USA) » Nikolai
ore: 05:01 - Osservazioni Meteo Nikolai
Lat. 63° 1' N Lon. 154° 21' W Alt. 126 metri s.l.m.
3 °C
Molto Nuvoloso
Temp. 24 Ore
0 °C
11 °C
Ovest/Sud-Ovest
13 Km/h
Dew point 0 °C
Umidità 80 %
Visibilità 10 Km
Il sole sorge alle ore 07:02
Il sole tramonta alle ore 21:32
| Data e Ora | Cielo e Fenomeni | T °C | DP °C | Um. % | Pres. hPa | Vis. km | Vento km/h | |
|---|---|---|---|---|---|---|---|---|
| Oggi h: 05:01 | Molto Nuvoloso | 3 | 0 | 80 | 1009 | 10 | O/SO 13 | |
| Oggi h: 04:01 | Coperto | 3 | 0 | 80 | 1008 | 10 | O/SO 13 | |
| Oggi h: 03:58 | Coperto | 3 | 0 | 80 | 1008 | 10 | O/SO 11.1 | |
| Oggi h: 03:39 | Coperto | 3 | 0 | 80 | 1008 | 10 | O/SO 16.7 | |
| Oggi h: 03:18 | Coperto | 3 | 0 | 80 | 1008 | 10 | O/SO 11.1 | |
| Oggi h: 03:01 | Coperto | 3 | 0 | 80 | 1008 | 10 | O 13 | |
| Oggi h: 02:34 | Pioggia | 3 | 0 | 80 | 1008 | 10 | O 13 | |
| Oggi h: 02:19 | Pioggia | 4 | 0 | 75 | 1007 | 10 | O 11.1 | |
| Oggi h: 02:01 | Pioggia | 4 | 0 | 75 | 1007 | 10 | O 13 | |
| Oggi h: 01:46 | Pioggia | 4 | 0 | 75 | 1007 | 10 | O/NO 14.8 | |
| Oggi h: 01:33 | Pioggia | 5 | 0 | 70 | 1007 | 10 | O 25.9 | |
| Oggi h: 01:17 | Pioggia | 6 | 0 | 65 | 1007 | 10 | O/SO 18.5 | |
| Oggi h: 01:01 | Pioggia | 6 | 0 | 65 | 1007 | 14 | O/SO 14.8 | |
| Oggi h: 00:01 | Pioggia | 6 | 0 | 65 | 1006 | 10 | SO 13 | |
| Ieri h: 23:48 | Pioggia | 0 | 0 | 88 | 1006 | 8 | SO 13 | |
| Ieri h: 23:36 | Pioggia | 0 | 0 | 100 | 1006 | 14 | SO 11.1 | |
| Ieri h: 23:24 | Coperto | 0 | 0 | 82 | 1006 | 10 | O/SO 5.5 | |
| Ieri h: 23:01 | Coperto | 0 | 0 | 87 | 1006 | 10 | N 0 | |
| Ieri h: 22:54 | Coperto | 0 | 0 | 100 | 1006 | 10 | N 0 | |
| Ieri h: 22:15 | Coperto | 0 | 0 | 86 | 1007 | 10 | N 5.5 | |
| Ieri h: 22:01 | Foschia | 0 | 0 | 88 | 1007 | 8 | N 0 | |
| Ieri h: 21:01 | Coperto | 0 | 0 | 93 | 1007 | 10 | S/SO 9.3 | |
| Ieri h: 20:29 | Coperto | 0 | 0 | 93 | 1008 | 10 | SO 7.4 | |
| Ieri h: 20:17 | Coperto | 0 | 0 | 81 | 1007 | 10 | SO 5.5 | |
| Ieri h: 20:01 | Coperto | 0 | 0 | 81 | 1008 | 10 | SO 7.4 | |
| Ieri h: 19:51 | Coperto | 0 | 0 | 71 | 1008 | 10 | SO 7.4 | |
| Ieri h: 19:18 | Pioggia | 8 | 0 | 56 | 1008 | 10 | O/SO 7.4 | |
| Ieri h: 19:01 | Pioggia | 8 | 0 | 56 | 1008 | 10 | N 5.5 | |
| Ieri h: 18:35 | Pioggia | 8 | 0 | 56 | 1009 | 10 | O/NO 11.1 | |
| Ieri h: 18:32 | Pioggia | 8 | 0 | 56 | 1009 | 10 | O/NO 9.3 | |
| Ieri h: 18:01 | Pioggia | 9 | 0 | 53 | 1009 | 10 | O 14.8 | |
| Ieri h: 17:01 | Pioggia | 9 | 0 | 53 | 1009 | 10 | S/SO 14.8 | |
| Ieri h: 16:56 | Pioggia | 9 | 0 | 53 | 1010 | 10 | S/SO 9.3 | |
| Ieri h: 16:01 | Pioggia | 9 | 0 | 53 | 1010 | 10 | S/SO 14.8 | |
| Ieri h: 15:59 | Pioggia | 9 | 0 | 53 | 1010 | 10 | S/SO 11.1 | |
| Ieri h: 15:18 | Pioggia | 9 | 0 | 53 | 1011 | 14 | SO 14.8 | |
| Ieri h: 15:13 | Pioggia | 9 | 0 | 53 | 1011 | 14 | N 11.1 | |
| Ieri h: 15:01 | Pioggia | 9 | 0 | 53 | 1011 | 14 | SO 13 | |
| Ieri h: 14:56 | Pioggia | 9 | 0 | 53 | 1011 | 14 | N 9.3 | |
| Ieri h: 14:01 | Pioggia | 11 | 9 | 87 | 1011 | 10 | SO 16.7 | |
| Ieri h: 13:01 | Coperto | 11 | 9 | 87 | 1012 | 10 | O/SO 20.3 | |
| Ieri h: 12:01 | Coperto | 10 | 9 | 93 | 1013 | 10 | SO 13 | |
| Ieri h: 11:01 | Coperto | 10 | 9 | 93 | 1013 | 10 | SO 14.8 | |
| Ieri h: 10:01 | Coperto | 10 | 10 | 100 | 1014 | 10 | S/SO 14.8 | |
| Ieri h: 09:42 | Coperto | 10 | 10 | 100 | 1014 | 10 | SO 16.7 | |
| Ieri h: 09:01 | Coperto | 10 | 10 | 100 | 1014 | 10 | SO 14.8 | |
| Ieri h: 08:01 | Coperto | 10 | 10 | 100 | 1014 | 10 | SO 14.8 | |
| Ieri h: 07:01 | Coperto | 10 | 10 | 100 | 1015 | 10 | S/SO 13 | |
| Ieri h: 06:22 | Coperto | 11 | 11 | 100 | 1015 | 10 | S/SO 13 | |
| Ieri h: 06:01 | Coperto | 11 | 11 | 100 | 1015 | 10 | S/SO 13 | |



